Location: Newark
(35.4036°N, 80.4356°W)
Time: 12:45:50
(UTC+00:00)

Envisat - Pass Details

Date: 27 August 2019
Orbit: 764 x 766 km, 98.1° (Epoch: 16 September)

Event Time Altitude Azimuth Distance (km) Brightness Sun altitude
Rises 00:49:05 0° 207° (SSW) 3,217 6.3 -10.9°
Reaches altitude 10° 00:52:10 10° 227° (SW) 2,296 5.8 -11.5°
Maximum altitude 00:55:25 17° 267° (W) 1,858 6.0 -12.1°
Drops below altitude 10° 00:58:41 10° 307° (NW) 2,305 6.8 -12.8°
Sets 01:01:48 0° 328° (NNW) 3,236 7.2 -13.3°
